User: anonymous   Login
Location: Unspecified
(0.0000°N, 0.0000°E)
Time: 00:47:45
(UTC+00:00)
Language:

STARLINK-11473 [DTC] - Orbit

View from above orbital plane
View from above orbital plane
View from above satellite
View from above satellite

Ground track
Ground track

The orbit is defined by the following mean orbital elements,

1 62060U          26145.17857110 +.00000000 +00000-0 +19591-2 0 00002
2 62060  53.1565  54.4398 0000941 109.4467 250.6653 15.69790094    06
Epoch (UTC): 25 May 2026 04:17:08
Eccentricity: 0.0000941
inclination: 53.1565°
perigee height: 359 km
apogee height: 360 km
right ascension of ascending node: 54.4398°
argument of perigee: 109.4467°
revolutions per day: 15.69790094
mean anomaly at epoch: 250.6653°

The dashed part of the orbit path shows where the satellite is in the earth's shadow,  

DLR